Lid_Strength_Index
-1 -1 -0 2 8 11 14 13 9 8 7 5 4 5 7 6 9 12 2 0 0 0 -1 -1 -1 -1 -1 -1 -1 -1 -1 -1 -1 -1 -1 -1 -1 -1 -1 -1 -1 -1 -1 -1 -1 -1 -1 -1 -1
0 0 1 4 9 13 15 10 11 7 5 4 5 5 7 8 4 3 2 0 -0 -0 -1 -1 -1 -1 -1 -1 -1 -1 -1 -1 -1 -1 -1 -1 -1 -1 -1 -1 -1 -1 -1 -1 -1 -1 -1 -1 -1
-0 0 4 6 8 14 14 10 8 6 5 5 6 4 5 7 3 3 1 0 -0 -0 -1 -1 -1 -2 -1 -1 -1 -1 -1 -1 -1 -1 -1 -1 -1 -1 -1 -1 -1 -1 -1 -1 -1 -1 -1 -1 -1
2 2 3 7 9 9 10 10 7 6 5 4 5 7 4 2 3 1 0 -0 0 -0 -1 -1 -1 -1 -1 -1 -1 -1 -1 -1 -1 -1 -1 -1 -1 -1 -1 -1 -1 -1 -1 -1 -1 -1 -1 -1 -1
1 3 7 8 8 7 6 7 5 6 5 5 5 7 6 3 1 1 0 0 0 0 -0 -1 -1 -1 -2 -1 -1 -1 -1 -1 -1 -1 -1 -1 -1 -1 -1 -1 -1 -1 -1 -1 -1 -1 -1 -1 -1
4 4 8 9 8 7 6 4 5 5 5 5 6 6 5 2 2 1 0 0 -0 0 -0 -1 -1 -2 -1 -1 -1 -1 -1 -1 -1 -1 -1 -1 -1 -1 -1 -1 -1 -1 -1 -1 -1 -1 -1 -1 -1
5 6 8 8 8 7 6 4 5 5 5 5 4 7 5 3 1 1 0 0 -0 -0 -0 -0 -1 -1 -1 -1 -1 -1 -1 -0 0 0 -1 -1 -1 -1 -1 -2 -2 -2 -2 -2 -2 -2 -2 -2 -2
4 5 7 7 8 9 5 4 4 5 6 3 3 7 7 3 1 1 0 0 0 -0 -0 -0 -1 -1 -1 -1 -1 -1 -0 0 0 -0 -0 -2 -1 -2 -2 -3 -1 -0 -1 -1 -2 -2 -2 -2 -2
3 7 8 8 7 8 5 5 4 3 4 4 3 4 3 2 1 1 1 1 1 1 0 -0 -0 -1 -0 -0 -1 -1 -0 -0 -0 -1 -4 -3 -2 -1 -1 0 1 1 -0 -2 -2 -2 -3 -3 -3
5 7 7 6 5 6 5 5 5 5 5 5 5 3 2 2 2 2 2 2 2 1 1 -0 -0 -0 -0 -1 -0 -1 -1 -0 -0 -1 -2 -1 -2 -1 -1 -1 -2 -1 -2 -3 -3 -4 -3 -3 -1
5 7 5 5 4 4 5 5 4 5 6 6 6 4 3 2 2 2 2 2 2 1 1 0 0 -1 -0 -0 -1 -1 -1 -1 -0 -1 -1 -2 -2 -1 0 0 1 -0 -3 -1 -1 -1 -1 -1 -1
6 5 5 5 4 4 5 4 5 5 6 5 4 3 3 3 3 3 2 2 2 1 1 0 -0 -0 -1 -1 -1 -1 -1 -2 0 0 -1 -1 -0 -0 -1 0 -0 -1 -1 -1 -1 -1 -1 -1 -1
6 5 4 4 5 4 4 5 5 4 5 4 4 3 3 3 3 2 2 2 1 2 1 1 -0 -0 -0 -1 -1 -1 -1 -0 -0 -0 -1 -0 -0 -0 -1 -1 -1 -1 -2 -1 -1 -1 -0 -0 -0
4 5 5 4 4 4 5 5 4 4 5 5 5 4 3 3 3 2 2 2 2 1 1 0 0 -0 -0 -0 -1 -1 -1 -1 -1 -0 -0 -0 0 -1 -0 -1 -1 -1 -2 -1 -1 -0 -0 -0 -0
4 6 5 5 4 5 4 6 6 4 3 4 4 4 3 3 2 3 2 2 1 1 1 1 0 1 -0 -1 -1 -1 -1 -0 -0 -0 -0 -0 -1 -1 -1 -0 -0 -1 -2 -2 -1 -1 -1 0 -0
6 6 8 6 5 5 5 8 5 3 4 5 4 4 4 3 3 2 2 2 1 1 1 1 0 0 -0 -0 -1 -1 -1 -1 -0 -0 0 -1 -1 -2 -2 -0 -0 -0 -2 -1 -0 -0 0 0 0
7 9 8 7 5 5 6 7 5 4 4 4 6 5 4 4 3 2 2 2 2 1 1 1 0 0 0 -0 -1 -0 -2 -1 -0 1 -1 -2 -2 -2 -2 -1 -0 -2 -1 -0 0 0 0 1 1
9 9 8 8 6 6 6 7 5 4 4 4 4 4 5 4 4 3 2 2 1 1 1 1 1 0 -0 0 -0 -0 -1 -0 1 -0 -1 -2 -2 -2 -1 -0 -1 -0 0 0 0 1 0 1 1
7 8 8 7 6 6 7 6 6 4 4 5 5 5 5 4 3 3 2 2 2 1 1 1 1 0 0 1 1 1 1 1 1 0 -1 -2 -1 -2 -1 -0 0 -1 1 0 0 1 1 1 0
7 8 8 7 6 6 7 7 6 5 5 5 5 4 5 4 5 4 3 2 2 2 1 1 1 1 0 1 -0 0 0 1 1 -0 -2 -1 -1 -1 0 -0 0 -0 0 0 0 1 2 1 1
7 8 8 8 6 6 7 8 7 5 4 4 4 4 4 4 5 4 4 3 2 2 2 1 1 1 0 -0 0 1 1 1 0 0 0 -0 -0 -0 -1 -1 -1 -0 1 1 1 1 1 2 1
8 6 7 7 8 10 7 11 8 6 6 6 5 4 4 4 4 4 4 3 3 2 1 1 1 1 0 0 1 2 3 2 1 1 -0 -0 -0 0 -0 -1 -1 -1 1 1 1 1 1 2 3
7 6 7 7 8 8 8 10 8 6 7 6 5 4 4 3 4 4 4 3 2 2 2 1 1 1 1 0 1 1 0 1 0 0 0 -0 -1 0 0 -1 -1 -1 0 -0 0 0 1 2 2
5 6 7 7 8 12 9 10 10 8 7 6 5 4 4 3 3 4 3 3 3 2 1 1 1 1 1 1 1 1 1 1 1 1 1 1 1 0 -0 -0 -1 -1 -0 -0 -0 -0 0 0 1
6 8 11 12 12 13 9 10 9 6 5 5 5 4 4 4 5 5 4 4 3 3 2 2 2 2 1 1 1 0 1 0 1 1 1 1 1 1 -0 -1 -0 -0 -1 -0 -1 -0 0 1 1
7 8 11 15 14 13 9 11 9 5 5 4 4 4 5 5 5 5 4 4 3 3 2 2 2 2 2 2 1 0 0 1 1 0 0 0 0 1 -1 -0 -1 0 1 -1 -1 0 0 -0 1
8 9 7 10 9 11 10 9 7 6 5 5 4 4 5 5 5 5 4 3 3 3 2 2 2 2 2 1 1 1 0 0 1 -0 -0 -0 -0 0 -0 -0 0 0 1 -0 -1 1 1 0 1
6 6 10 9 15 15 11 10 11 8 8 6 6 5 6 6 5 5 4 3 3 3 2 2 2 2 2 1 1 1 1 0 0 0 -0 -0 -1 -0 -0 -0 0 0 1 0 -1 0 0 0 1
8 12 12 9 10 15 15 12 8 9 7 7 6 6 6 5 6 5 4 4 3 2 2 2 2 2 2 1 1 1 1 0 0 0 -0 -0 -1 -1 -0 0 0 1 1 0 -0 -0 1 1 1
6 8 8 11 12 13 16 16 7 6 6 6 6 5 5 5 5 4 4 4 3 3 3 2 2 2 2 1 1 1 0 1 1 0 -0 -0 -0 -1 -0 -0 0 1 1 0 -0 0 0 1 1